This is the latest recevied weather packets stored in our database for station/object KB0BS-13. If no packets are shown the sender has not sent any weather packets the latest 10 day(s).
| Time | Temp. | Humidity | Pressure | Rain* | Wind** | Luminosity | Snow |
|---|---|---|---|---|---|---|---|
| 1777898851 | 1.67° C | 99% | 998.8 hPa | 0 mm | - | 126 W/m² | - |
| 1777898245 | 1.67° C | 99% | 999.2 hPa | 0 mm | - | 118 W/m² | - |
| 1777897942 | 1.67° C | 99% | 999 hPa | 0 mm | - | 131 W/m² | - |
| 1777897638 | 1.11° C | 99% | 999.1 hPa | 0 mm | - | 150 W/m² | - |
| 1777897334 | 1.11° C | 99% | 999.1 hPa | 0 mm | - | 149 W/m² | - |
| 1777897030 | 0.56° C | 99% | 999.3 hPa | 0 mm | - | 124 W/m² | - |
| 1777896728 | 0.56° C | 99% | 999.3 hPa | 0 mm | - | 121 W/m² | - |
| 1777896424 | 0.56° C | 99% | 999.4 hPa | 0 mm | - | 95 W/m² | - |
| 1777896122 | 0.56° C | 99% | 999.7 hPa | 0 mm | - | 78 W/m² | - |
| 1777895820 | 0° C | 99% | 999.7 hPa | 0 mm | - | 84 W/m² | - |
| 1777895517 | 0° C | 99% | 999.8 hPa | 0 mm | - | 83 W/m² | - |
| 1777894609 | 0° C | 99% | 999.5 hPa | 0 mm | - | 81 W/m² | - |
| 1777894306 | -0.56° C | 99% | 999.6 hPa | 0 mm | - | 72 W/m² | - |
| 1777894004 | -0.56° C | 99% | 999.6 hPa | 0 mm | - | 60 W/m² | - |
| 1777893700 | -0.56° C | 99% | 999.6 hPa | 0 mm | - | 53 W/m² | - |
| 1777893396 | -0.56° C | 99% | 999.8 hPa | 0 mm | - | 43 W/m² | - |
| 1777893092 | -0.56° C | 99% | 999.8 hPa | 0 mm | - | 32 W/m² | - |
| 1777892789 | -0.56° C | 99% | 1000.1 hPa | 0 mm | - | 28 W/m² | - |
| 1777892485 | -0.56° C | 99% | 1000 hPa | 0 mm | - | 25 W/m² | - |
| 1777892181 | -0.56° C | 99% | 1000 hPa | 0 mm | - | 22 W/m² | - |
| 1777891878 | -0.56° C | 99% | 999.9 hPa | 0 mm | - | 19 W/m² | - |
| 1777891575 | -0.56° C | 99% | 1000 hPa | 0 mm | - | 15 W/m² | - |
| 1777890362 | -1.11° C | 99% | 1000 hPa | 0 mm | - | 4 W/m² | - |
| 1777890058 | -1.11° C | 99% | 1000 hPa | 0 mm | - | 2 W/m² | - |
| 1777889756 | -1.11° C | 99% | 1000 hPa | 0 mm | - | 1 W/m² | - |
* Rain latest hour (hover to see other rain measurements)
** Current wind speed in m/s (hover to see current wind gust speed)